project_name,platform_name,Date_(yyyymmdd),Time_(hh24miss),beacon_ID,latitude_DD,longitude_DD,altitude_m,altitude_result_value_type,speed_m_s,speed_result_value_type,direction_degrees,direction_result_value_type,fix,sat
BaySys,Amundsen,2008-05-25,18:27:35,300034012811310,72.5665,-129.5816,26.4841,Actual,0.0000,Calculated,196.0900,Calculated,1,7
BaySys,Amundsen,2008-05-25,19:07:35,300034012811310,72.5607,-129.5855,153.7226,Actual,0.2751,Calculated,200.3800,Calculated,1,5
BaySys,Amundsen,2008-05-25,20:01:06,300034012811310,72.5023,-130.3496,-10.9179,Actual,8.2302,Calculated,192.7600,Calculated,1,5
BaySys,Amundsen,2008-05-25,21:59:59,300034012811310,72.4951,-130.3746,8.9032,Actual,0.1629,Calculated,266.4700,Calculated,1,6
BaySys,Amundsen,2008-05-26,00:00:35,300034012811310,72.4893,-130.3978,6.8745,Actual,0.1400,Calculated,214.5800,Calculated,1,11
BaySys,Amundsen,2008-05-26,02:00:12,300034012811310,72.4824,-130.4149,-24.3466,Actual,0.1339,Calculated,173.7100,Calculated,1,5
BaySys,Amundsen,2008-05-26,04:00:35,300034012811310,72.4730,-130.4428,-3.1471,Actual,0.1948,Calculated,152.7700,Calculated,1,7
BaySys,Amundsen,2008-05-26,06:00:53,300034012811310,72.4680,-130.4720,0.4194,Actual,0.1565,Calculated,245.3400,Calculated,1,6
BaySys,Amundsen,2008-05-26,08:00:10,300034012811310,72.4612,-130.4726,-1.1809,Actual,0.1061,Calculated,183.3000,Calculated,1,6
BaySys,Amundsen,2008-05-26,10:00:09,300034012811310,72.4366,-130.4563,11.3357,Actual,0.3889,Calculated,169.0900,Calculated,1,8
BaySys,Amundsen,2008-05-26,12:00:35,300034012811310,72.4009,-130.4661,9.0738,Actual,0.5532,Calculated,216.6800,Calculated,1,6
BaySys,Amundsen,2008-05-26,14:00:35,300034012811310,72.3697,-130.5115,5.9106,Actual,0.5284,Calculated,228.6500,Calculated,1,9
BaySys,Amundsen,2008-05-26,16:00:53,300034012811310,72.3507,-130.5619,5.6598,Actual,0.3770,Calculated,226.2800,Calculated,1,7
BaySys,Amundsen,2008-05-26,18:01:05,300034012811310,72.3426,-130.5877,22.2805,Actual,0.1743,Calculated,211.5200,Calculated,1,5
BaySys,Amundsen,2008-05-26,20:00:22,300034012811310,72.3349,-130.5758,-0.5803,Actual,0.1326,Calculated,131.8600,Calculated,1,9
BaySys,Amundsen,2008-05-26,22:01:05,300034012811310,72.3179,-130.5513,7.8012,Actual,0.2859,Calculated,172.4000,Calculated,1,8
BaySys,Amundsen,2008-05-27,00:00:29,300034012811310,72.2928,-130.5473,2.5177,Actual,0.3914,Calculated,190.4000,Calculated,1,10
BaySys,Amundsen,2008-05-27,02:01:05,300034012811310,72.2687,-130.5766,0.5021,Actual,0.3963,Calculated,159.7800,Calculated,1,13
BaySys,Amundsen,2008-05-27,04:00:48,300034012811310,72.2543,-130.6215,2.2307,Actual,0.3087,Calculated,232.6000,Calculated,1,6
BaySys,Amundsen,2008-05-27,06:00:39,300034012811310,72.2483,-130.6541,-7.7672,Actual,0.1802,Calculated,289.1900,Calculated,1,6
BaySys,Amundsen,2008-05-27,08:01:23,300034012811310,72.2435,-130.6617,-1.0629,Actual,0.0821,Calculated,177.1700,Calculated,1,9
BaySys,Amundsen,2008-05-27,10:01:05,300034012811310,72.2336,-130.6557,-2.1229,Actual,0.1564,Calculated,131.6700,Calculated,1,5
BaySys,Amundsen,2008-05-27,12:01:05,300034012811310,72.2168,-130.6565,-13.7915,Actual,0.2604,Calculated,193.5500,Calculated,1,7
BaySys,Amundsen,2008-05-27,14:00:47,300034012811310,72.1985,-130.6770,11.7253,Actual,0.3005,Calculated,217.8200,Calculated,1,13
BaySys,Amundsen,2008-05-27,16:01:29,300034012811310,72.1842,-130.7118,7.5699,Actual,0.2747,Calculated,336.3600,Calculated,1,10
BaySys,Amundsen,2008-05-27,18:01:35,300034012811310,72.1770,-130.7434,8.9664,Actual,0.1868,Calculated,282.9300,Calculated,1,8
BaySys,Amundsen,2008-05-27,20:00:54,300034012811310,72.1736,-130.7568,-1.0385,Actual,0.0831,Calculated,186.6200,Calculated,1,8
BaySys,Amundsen,2008-05-27,22:01:35,300034012811310,72.1684,-130.7522,-0.0699,Actual,0.0830,Calculated,122.4400,Calculated,1,8
BaySys,Amundsen,2008-05-28,00:01:35,300034012811310,72.1578,-130.7431,3.9622,Actual,0.1699,Calculated,167.6500,Calculated,1,10
BaySys,Amundsen,2008-05-28,02:01:04,300034012811310,72.1436,-130.7467,-2.5299,Actual,0.2217,Calculated,239.5700,Calculated,1,8
BaySys,Amundsen,2008-05-28,04:01:35,300034012811310,72.1313,-130.7661,-0.3563,Actual,0.2109,Calculated,195.7300,Calculated,1,11
BaySys,Amundsen,2008-05-28,06:01:24,300034012811310,72.1248,-130.7868,1.9313,Actual,0.1411,Calculated,252.1100,Calculated,1,6
BaySys,Amundsen,2008-05-28,08:01:12,300034012811310,72.1218,-130.7904,1.6683,Actual,0.0496,Calculated,159.9300,Calculated,1,10
BaySys,Amundsen,2008-05-28,10:01:35,300034012811310,72.1158,-130.7789,-1.0293,Actual,0.1076,Calculated,157.7800,Calculated,1,6
BaySys,Amundsen,2008-05-28,12:01:53,300034012811310,72.1036,-130.7703,-8.1981,Actual,0.1930,Calculated,180.3400,Calculated,1,8
BaySys,Amundsen,2008-05-28,14:01:15,300034012811310,72.0882,-130.7810,6.4354,Actual,0.2454,Calculated,197.3300,Calculated,1,14
BaySys,Amundsen,2008-05-28,16:01:35,300034012811310,72.0754,-130.8103,7.1075,Actual,0.2420,Calculated,238.7800,Calculated,1,9
BaySys,Amundsen,2008-05-28,18:01:23,300034012811310,72.0688,-130.8429,-4.9871,Actual,0.1865,Calculated,241.6300,Calculated,1,7
BaySys,Amundsen,2008-05-28,20:02:05,300034012811310,72.0666,-130.8617,-5.1030,Actual,0.0955,Calculated,253.0300,Calculated,1,11
BaySys,Amundsen,2008-05-28,22:01:36,300034012811310,72.0635,-130.8634,16.4371,Actual,0.0489,Calculated,166.7000,Calculated,1,10
BaySys,Amundsen,2008-05-29,00:01:34,300034012811310,72.0549,-130.8599,-6.5775,Actual,0.1344,Calculated,171.7400,Calculated,1,12
BaySys,Amundsen,2008-05-29,02:02:05,300034012811310,72.0417,-130.8691,2.4728,Actual,0.2084,Calculated,211.0300,Calculated,1,15
BaySys,Amundsen,2008-05-29,04:01:33,300034012811310,72.0291,-130.8959,1.4835,Actual,0.2346,Calculated,217.6400,Calculated,1,9
BaySys,Amundsen,2008-05-29,06:02:05,300034012811310,72.0209,-130.9293,3.0774,Actual,0.2033,Calculated,346.1800,Calculated,1,8
BaySys,Amundsen,2008-05-29,08:02:10,300034012811310,72.0176,-130.9542,1.8629,Actual,0.1296,Calculated,249.5900,Calculated,1,11
BaySys,Amundsen,2008-05-29,10:01:40,300034012811310,72.0151,-130.9621,9.0012,Actual,0.0544,Calculated,157.2100,Calculated,1,9
BaySys,Amundsen,2008-05-29,12:02:05,300034012811310,72.0086,-130.9593,4.0399,Actual,0.1013,Calculated,108.7200,Calculated,1,8
BaySys,Amundsen,2008-05-30,14:02:31,300034012811310,71.8988,-131.0967,5.8121,Actual,0.1404,Calculated,133.7500,Calculated,1,7
BaySys,Amundsen,2008-05-30,16:02:18,300034012811310,71.8861,-131.0870,4.2247,Actual,0.2027,Calculated,137.9200,Calculated,1,9
BaySys,Amundsen,2008-05-30,18:02:31,300034012811310,71.8734,-131.0869,3.0232,Actual,0.1965,Calculated,190.0300,Calculated,1,10
BaySys,Amundsen,2008-05-30,20:03:05,300034012811310,71.8665,-131.0906,-7.2045,Actual,0.1079,Calculated,200.7900,Calculated,1,11
BaySys,Amundsen,2008-05-30,22:02:33,300034012811310,71.8652,-131.0825,5.6581,Actual,0.0442,Calculated,102.9900,Calculated,1,11
BaySys,Amundsen,2008-05-31,00:02:32,300034012811310,71.8639,-131.0560,-4.4311,Actual,0.1295,Calculated,104.9900,Calculated,1,12
BaySys,Amundsen,2008-05-31,02:02:59,300034012811310,71.8543,-131.0232,-2.4970,Actual,0.2165,Calculated,96.5200,Calculated,1,14
BaySys,Amundsen,2008-05-31,04:02:54,300034012811310,71.8342,-131.0081,0.5290,Actual,0.3202,Calculated,176.3700,Calculated,1,7
BaySys,Amundsen,2008-05-31,06:02:31,300034012811310,71.8134,-131.0263,0.7128,Actual,0.3352,Calculated,220.5900,Calculated,1,10
BaySys,Amundsen,2008-05-31,08:02:39,300034012811310,71.8013,-131.0630,-6.9751,Actual,0.2581,Calculated,255.2500,Calculated,1,6
BaySys,Amundsen,2008-05-31,10:03:05,300034012811310,71.7994,-131.0887,8.5082,Actual,0.1275,Calculated,191.2600,Calculated,1,9
BaySys,Amundsen,2008-05-31,12:02:45,300034012811310,71.7997,-131.0800,2.6757,Actual,0.0425,Calculated,130.7000,Calculated,1,10
BaySys,Amundsen,2008-05-31,14:02:45,300034012811310,71.7917,-131.0484,5.3022,Actual,0.1970,Calculated,154.2000,Calculated,1,10
BaySys,Amundsen,2008-05-31,16:03:05,300034012811310,71.7730,-131.0284,3.7731,Actual,0.3048,Calculated,146.7100,Calculated,1,12
BaySys,Amundsen,2008-05-31,18:03:07,300034012811310,71.7513,-131.0390,-8.0461,Actual,0.3401,Calculated,200.6200,Calculated,1,9
BaySys,Amundsen,2008-05-31,20:03:07,300034012811310,71.7361,-131.0721,-9.4217,Actual,0.2852,Calculated,230.5100,Calculated,1,8
BaySys,Amundsen,2008-05-31,22:02:54,300034012811310,71.7297,-131.1042,3.5673,Actual,0.1852,Calculated,151.2300,Calculated,1,12
BaySys,Amundsen,2008-06-01,00:03:29,300034012811310,71.7274,-131.1189,0.9485,Actual,0.0795,Calculated,99.2100,Calculated,1,14
BaySys,Amundsen,2008-06-01,02:03:00,300034012811310,71.7229,-131.1151,-0.5918,Actual,0.0724,Calculated,159.5000,Calculated,1,11
BaySys,Amundsen,2008-06-01,04:03:35,300034012811310,71.7118,-131.1080,1.5612,Actual,0.1746,Calculated,179.0900,Calculated,1,8
BaySys,Amundsen,2008-06-01,06:03:35,300034012811310,71.6971,-131.1183,-2.5241,Actual,0.2333,Calculated,345.6800,Calculated,1,10
BaySys,Amundsen,2008-06-01,08:03:11,300034012811310,71.6860,-131.1478,0.8669,Actual,0.2249,Calculated,245.9800,Calculated,1,11
BaySys,Amundsen,2008-06-01,10:03:09,300034012811310,71.6829,-131.1816,87.0770,Actual,0.1716,Calculated,205.1100,Calculated,1,11
BaySys,Amundsen,2008-06-01,12:03:35,300034012811310,71.6847,-131.2016,6.8008,Actual,0.1010,Calculated,57.1200,Calculated,1,9
BaySys,Amundsen,2008-06-01,14:03:14,300034012811310,71.6858,-131.2032,2.3895,Actual,0.0188,Calculated,125.6300,Calculated,1,12
BaySys,Amundsen,2008-06-01,16:03:53,300034012811310,71.6807,-131.1981,6.0515,Actual,0.0824,Calculated,161.5900,Calculated,1,8
BaySys,Amundsen,2008-06-01,18:03:53,300034012811310,71.6703,-131.2042,5.6475,Actual,0.1639,Calculated,202.7900,Calculated,1,10
BaySys,Amundsen,2008-06-01,20:03:29,300034012811310,71.6604,-131.2289,-31.0081,Actual,0.1957,Calculated,247.6400,Calculated,1,8
BaySys,Amundsen,2008-06-01,22:03:26,300034012811310,71.6563,-131.2628,7.1318,Actual,0.1773,Calculated,277.1500,Calculated,1,9
BaySys,Amundsen,2008-06-02,00:03:59,300034012811310,71.6580,-131.2891,5.2858,Actual,0.1304,Calculated,26.6100,Calculated,1,13
BaySys,Amundsen,2008-06-02,02:03:29,300034012811310,71.6600,-131.2974,-4.5050,Actual,0.0512,Calculated,81.4300,Calculated,1,13
BaySys,Amundsen,2008-06-02,04:04:05,300034012811310,71.6566,-131.2955,1.9704,Actual,0.0532,Calculated,243.5300,Calculated,1,8
BaySys,Amundsen,2008-06-02,06:03:54,300034012811310,71.6475,-131.2994,-3.5030,Actual,0.1425,Calculated,199.0500,Calculated,1,11
BaySys,Amundsen,2008-06-02,08:03:39,300034012811310,71.6368,-131.3195,4.7927,Actual,0.1931,Calculated,253.7600,Calculated,1,9
BaySys,Amundsen,2008-06-02,10:04:23,300034012811310,71.6299,-131.3532,12.4142,Actual,0.1952,Calculated,243.6200,Calculated,1,12
BaySys,Amundsen,2008-06-02,12:03:56,300034012811310,71.6283,-131.3871,10.7192,Actual,0.1682,Calculated,228.3400,Calculated,1,9
BaySys,Amundsen,2008-06-02,14:03:43,300034012811310,71.6292,-131.4102,13.4339,Actual,0.1140,Calculated,253.1200,Calculated,1,11
BaySys,Amundsen,2008-06-02,16:04:29,300034012811310,71.6275,-131.4221,4.2970,Actual,0.0634,Calculated,94.0600,Calculated,1,8
BaySys,Amundsen,2008-06-02,18:04:29,300034012811310,71.6208,-131.4332,1.0773,Actual,0.1172,Calculated,232.2000,Calculated,1,10
BaySys,Amundsen,2008-06-02,20:03:51,300034012811310,71.6114,-131.4557,-3.6206,Actual,0.1835,Calculated,264.1000,Calculated,1,10
BaySys,Amundsen,2008-06-02,22:04:29,300034012811310,71.6044,-131.4921,6.6653,Actual,0.2074,Calculated,225.0100,Calculated,1,10
BaySys,Amundsen,2008-06-03,00:04:03,300034012811310,71.6029,-131.5329,-5.2478,Actual,0.2018,Calculated,310.0400,Calculated,1,14
BaySys,Amundsen,2008-06-03,02:03:58,300034012811310,71.6062,-131.5669,2.9701,Actual,0.1742,Calculated,37.6500,Calculated,1,10
BaySys,Amundsen,2008-06-03,04:04:35,300034012811310,71.6103,-131.5878,-4.3118,Actual,0.1198,Calculated,126.0400,Calculated,1,8
BaySys,Amundsen,2008-06-03,06:04:35,300034012811310,71.6105,-131.5996,4.7628,Actual,0.0578,Calculated,65.5600,Calculated,1,9
BaySys,Amundsen,2008-06-03,08:04:35,300034012811310,71.6086,-131.6194,11.2096,Actual,0.1012,Calculated,12.8000,Calculated,1,11
BaySys,Amundsen,2008-06-03,10:04:12,300034012811310,71.6089,-131.6511,6.9518,Actual,0.1557,Calculated,267.9600,Calculated,1,6
BaySys,Amundsen,2008-06-03,12:04:35,300034012811310,71.6144,-131.6871,-0.0287,Actual,0.1950,Calculated,350.9200,Calculated,1,9
BaySys,Amundsen,2008-06-03,14:04:21,300034012811310,71.6227,-131.7146,3.1119,Actual,0.1865,Calculated,299.2500,Calculated,1,9
BaySys,Amundsen,2008-06-03,16:04:59,300034012811310,71.6315,-131.7353,0.7842,Actual,0.1689,Calculated,333.7600,Calculated,1,11
BaySys,Amundsen,2008-06-03,18:04:53,300034012811310,71.6386,-131.7547,4970.8750,Actual,0.1454,Calculated,259.5700,Calculated,1,10
BaySys,Amundsen,2008-06-03,20:04:24,300034012811310,71.6440,-131.7763,-6.1419,Actual,0.1352,Calculated,294.0500,Calculated,1,9
BaySys,Amundsen,2008-06-03,22:05:05,300034012811310,71.6478,-131.8014,5.2662,Actual,0.1352,Calculated,51.1800,Calculated,1,9
BaySys,Amundsen,2008-06-04,00:04:29,300034012811310,71.6519,-131.8357,-21.9506,Actual,0.1800,Calculated,316.5900,Calculated,1,12
BaySys,Amundsen,2008-06-04,02:04:29,300034012811310,71.6585,-131.8772,6.1313,Actual,0.2269,Calculated,273.2300,Calculated,1,8
BaySys,Amundsen,2008-06-04,04:05:05,300034012811310,71.6672,-131.9187,4.1495,Actual,0.2420,Calculated,225.6800,Calculated,1,9
BaySys,Amundsen,2008-06-04,06:05:05,300034012811310,71.6754,-131.9534,7.2445,Actual,0.2116,Calculated,55.7000,Calculated,1,10
BaySys,Amundsen,2008-06-04,08:04:37,300034012811310,71.6811,-131.9808,4.9408,Actual,0.1608,Calculated,315.3800,Calculated,1,12
BaySys,Amundsen,2008-06-04,10:05:05,300034012811310,71.6843,-132.0068,9.9816,Actual,0.1356,Calculated,240.6600,Calculated,1,9
BaySys,Amundsen,2008-06-04,12:05:04,300034012811310,71.6863,-132.0398,-17.8383,Actual,0.1638,Calculated,309.2500,Calculated,1,12
BaySys,Amundsen,2008-06-04,14:05:01,300034012811310,71.6908,-132.0831,2.7885,Actual,0.2223,Calculated,293.6400,Calculated,1,9
BaySys,Amundsen,2008-06-04,16:05:29,300034012811310,71.6996,-132.1324,4.7903,Actual,0.2751,Calculated,297.1400,Calculated,1,9
BaySys,Amundsen,2008-06-04,18:04:52,300034012811310,71.7124,-132.1778,-0.6314,Actual,0.2985,Calculated,305.1500,Calculated,1,9
BaySys,Amundsen,2008-06-04,20:04:57,300034012811310,71.7265,-132.2136,-3.6269,Actual,0.2792,Calculated,308.5400,Calculated,1,9
BaySys,Amundsen,2008-06-04,22:04:57,300034012811310,71.7392,-132.2448,1.4777,Actual,0.2485,Calculated,303.2800,Calculated,1,7
BaySys,Amundsen,2008-06-05,00:05:36,300034012811310,71.7512,-132.2811,-5.1286,Actual,0.2549,Calculated,313.8700,Calculated,1,12
BaySys,Amundsen,2008-06-05,02:05:04,300034012811310,71.7648,-132.3254,1.5347,Actual,0.3025,Calculated,300.4400,Calculated,1,8
BaySys,Amundsen,2008-06-05,04:05:35,300034012811310,71.7818,-132.3716,4.6887,Actual,0.3444,Calculated,323.0000,Calculated,1,10
BaySys,Amundsen,2008-06-05,06:05:35,300034012811310,71.8002,-132.4081,4.6919,Actual,0.3356,Calculated,37.5500,Calculated,1,9
BaySys,Amundsen,2008-06-05,08:05:06,300034012811310,71.8159,-132.4336,3.1436,Actual,0.2739,Calculated,355.1000,Calculated,1,10
BaySys,Amundsen,2008-06-05,10:05:35,300034012811310,71.8270,-132.4535,0.2312,Actual,0.1963,Calculated,200.7600,Calculated,1,8
BaySys,Amundsen,2008-06-05,12:05:35,300034012811310,71.8343,-132.4797,-6.3273,Actual,0.1699,Calculated,305.5700,Calculated,1,14
BaySys,Amundsen,2008-06-05,14:05:14,300034012811310,71.8415,-132.5185,-5.4490,Actual,0.2189,Calculated,286.1400,Calculated,1,9
BaySys,Amundsen,2008-06-05,16:05:35,300034012811310,71.8519,-132.5679,-0.4928,Actual,0.2872,Calculated,342.6200,Calculated,1,10
BaySys,Amundsen,2008-06-05,18:05:17,300034012811310,71.8655,-132.6163,15.3809,Actual,0.3155,Calculated,311.8500,Calculated,1,10
BaySys,Amundsen,2008-06-05,20:05:22,300034012811310,71.8801,-132.6543,-0.6286,Actual,0.2910,Calculated,317.7100,Calculated,1,10
BaySys,Amundsen,2008-06-05,22:06:05,300034012811310,71.8915,-132.6797,-1.0831,Actual,0.2137,Calculated,326.3900,Calculated,1,10
BaySys,Amundsen,2008-06-06,00:05:36,300034012811310,71.8978,-132.7047,-10.4873,Actual,0.1557,Calculated,294.6000,Calculated,1,12
BaySys,Amundsen,2008-06-06,02:05:32,300034012811310,71.9007,-132.7394,-2.8272,Actual,0.1732,Calculated,269.7000,Calculated,1,10
BaySys,Amundsen,2008-06-06,04:06:05,300034012811310,71.9042,-132.7863,-2.0548,Actual,0.2313,Calculated,190.4100,Calculated,1,9
BaySys,Amundsen,2008-06-06,06:06:05,300034012811310,71.9108,-132.8375,3.1753,Actual,0.2670,Calculated,313.8800,Calculated,1,10
BaySys,Amundsen,2008-06-06,08:06:29,300034012811310,71.9211,-132.8831,7.1592,Actual,0.2705,Calculated,312.4900,Calculated,1,8
BaySys,Amundsen,2008-06-06,10:05:54,300034012811310,71.9321,-132.9112,9.3051,Actual,0.2186,Calculated,340.2900,Calculated,1,11
BaySys,Amundsen,2008-06-06,12:05:39,300034012811310,71.9393,-132.9263,-3.7766,Actual,0.1334,Calculated,103.3600,Calculated,1,12
BaySys,Amundsen,2008-06-06,14:06:05,300034012811310,71.9422,-132.9466,-2.7473,Actual,0.1071,Calculated,328.3000,Calculated,1,10
BaySys,Amundsen,2008-06-06,16:05:59,300034012811310,71.9439,-132.9806,-1.4840,Actual,0.1657,Calculated,107.9800,Calculated,1,6
BaySys,Amundsen,2008-06-06,18:06:23,300034012811310,71.9474,-133.0267,-4.9817,Actual,0.2274,Calculated,280.5700,Calculated,1,10
BaySys,Amundsen,2008-06-06,20:05:48,300034012811310,71.9548,-133.0713,-0.5911,Actual,0.2442,Calculated,298.5600,Calculated,1,7
BaySys,Amundsen,2008-06-06,22:06:29,300034012811310,71.9637,-133.0997,-5.2770,Actual,0.1929,Calculated,317.3400,Calculated,1,11
BaySys,Amundsen,2008-06-07,00:05:53,300034012811310,71.9693,-133.1126,-1.9471,Actual,0.1072,Calculated,351.5000,Calculated,1,10
BaySys,Amundsen,2008-06-07,02:06:29,300034012811310,71.9697,-133.1267,-2.8886,Actual,0.0676,Calculated,110.7400,Calculated,1,9
BaySys,Amundsen,2008-06-07,04:06:02,300034012811310,71.9673,-133.1538,1.8491,Actual,0.1358,Calculated,240.0300,Calculated,1,9
BaySys,Amundsen,2008-06-07,06:06:00,300034012811310,71.9668,-133.1954,-5.1960,Actual,0.1999,Calculated,292.9700,Calculated,1,9
BaySys,Amundsen,2008-06-07,08:05:58,300034012811310,71.9707,-133.2372,-3.0675,Actual,0.2096,Calculated,317.3500,Calculated,1,7
BaySys,Amundsen,2008-06-07,10:06:00,300034012811310,71.9763,-133.2634,26.3693,Actual,0.1527,Calculated,350.6700,Calculated,1,10
BaySys,Amundsen,2008-06-07,12:06:35,300034012811310,71.9799,-133.2773,-2.2087,Actual,0.0865,Calculated,163.1200,Calculated,1,13
BaySys,Amundsen,2008-06-07,14:06:06,300034012811310,71.9794,-133.2913,3.6109,Actual,0.0679,Calculated,272.6900,Calculated,1,8
BaySys,Amundsen,2008-06-07,16:06:53,300034012811310,71.9776,-133.3182,5.1895,Actual,0.1312,Calculated,150.9200,Calculated,1,6
BaySys,Amundsen,2008-06-07,18:06:10,300034012811310,71.9787,-133.3578,-5.7897,Actual,0.1919,Calculated,292.6600,Calculated,1,10
BaySys,Amundsen,2008-06-07,20:06:59,300034012811310,71.9838,-133.3967,-0.6354,Actual,0.2013,Calculated,298.4100,Calculated,1,10
BaySys,Amundsen,2008-06-07,22:06:28,300034012811310,71.9906,-133.4219,-26.7313,Actual,0.1610,Calculated,316.7300,Calculated,1,10
BaySys,Amundsen,2008-06-08,00:06:17,300034012811310,71.9944,-133.4336,-6.4818,Actual,0.0815,Calculated,272.3600,Calculated,1,10
BaySys,Amundsen,2008-06-08,02:06:53,300034012811310,71.9928,-133.4425,-4.7194,Actual,0.0491,Calculated,182.0100,Calculated,1,12
BaySys,Amundsen,2008-06-08,04:06:53,300034012811310,71.9877,-133.4638,-1.1924,Actual,0.1291,Calculated,219.0800,Calculated,1,8
BaySys,Amundsen,2008-06-08,06:06:23,300034012811310,71.9836,-133.4980,-15.2188,Actual,0.1766,Calculated,240.2900,Calculated,1,9
BaySys,Amundsen,2008-06-08,08:06:27,300034012811310,71.9827,-133.5349,-1.2169,Actual,0.1774,Calculated,246.0500,Calculated,1,7
BaySys,Amundsen,2008-06-08,10:06:59,300034012811310,71.9839,-133.5609,-0.2309,Actual,0.1255,Calculated,176.4700,Calculated,1,12
BaySys,Amundsen,2008-06-08,12:06:56,300034012811310,71.9835,-133.5731,-2.4880,Actual,0.0589,Calculated,218.2400,Calculated,1,14
BaySys,Amundsen,2008-06-08,14:06:29,300034012811310,71.9794,-133.5807,-2.9993,Actual,0.0735,Calculated,213.3000,Calculated,1,11
BaySys,Amundsen,2008-06-08,16:07:05,300034012811310,71.9724,-133.5963,5.2592,Actual,0.1311,Calculated,174.0700,Calculated,1,6
BaySys,Amundsen,2008-06-08,18:07:05,300034012811310,71.9662,-133.6253,-6.8827,Actual,0.1691,Calculated,241.7200,Calculated,1,10
BaySys,Amundsen,2008-06-08,20:06:40,300034012811310,71.9635,-133.6603,6.3310,Actual,0.1738,Calculated,300.1900,Calculated,1,8
BaySys,Amundsen,2008-06-08,22:06:40,300034012811310,71.9636,-133.6891,-1.1910,Actual,0.1383,Calculated,227.2600,Calculated,1,9
BaySys,Amundsen,2008-06-09,00:06:41,300034012811310,71.9629,-133.7048,-7.8330,Actual,0.0762,Calculated,250.4900,Calculated,1,10
BaySys,Amundsen,2008-06-09,02:07:05,300034012811310,71.9586,-133.7135,-18.4195,Actual,0.0784,Calculated,165.3400,Calculated,1,10
BaySys,Amundsen,2008-06-09,04:06:50,300034012811310,71.9509,-133.7268,-2.8645,Actual,0.1356,Calculated,236.4400,Calculated,1,6
BaySys,Amundsen,2008-06-09,06:06:43,300034012811310,71.9427,-133.7519,40.8080,Actual,0.1754,Calculated,179.9800,Calculated,1,8
BaySys,Amundsen,2008-06-09,08:06:47,300034012811310,71.9372,-133.7855,-4.9188,Actual,0.1825,Calculated,257.0700,Calculated,1,8
BaySys,Amundsen,2008-06-09,10:07:23,300034012811310,71.9350,-133.8158,-1.1963,Actual,0.1489,Calculated,271.4500,Calculated,1,11
BaySys,Amundsen,2008-06-09,12:06:50,300034012811310,71.9334,-133.8339,0.3470,Actual,0.0909,Calculated,131.4400,Calculated,1,9
BaySys,Amundsen,2008-06-09,14:07:29,300034012811310,71.9296,-133.8429,4.3381,Actual,0.0727,Calculated,140.0200,Calculated,1,9
BaySys,Amundsen,2008-06-09,16:07:15,300034012811310,71.9224,-133.8541,8.2445,Actual,0.1242,Calculated,196.8100,Calculated,1,8
BaySys,Amundsen,2008-06-09,18:07:02,300034012811310,71.9142,-133.8768,-14.4201,Actual,0.1679,Calculated,273.4800,Calculated,1,8
BaySys,Amundsen,2008-06-09,20:07:00,300034012811310,71.9081,-133.9084,2.2483,Actual,0.1792,Calculated,232.3000,Calculated,1,9
BaySys,Amundsen,2008-06-09,22:07:00,300034012811310,71.9051,-133.9388,3.0480,Actual,0.1536,Calculated,205.0900,Calculated,1,9
BaySys,Amundsen,2008-06-10,00:07:35,300034012811310,71.9036,-133.9605,1.0666,Actual,0.1066,Calculated,255.4600,Calculated,1,10
BaySys,Amundsen,2008-06-10,02:07:26,300034012811310,71.9006,-133.9714,0.1804,Actual,0.0702,Calculated,194.5800,Calculated,1,10
BaySys,Amundsen,2008-06-10,04:07:08,300034012811310,71.8944,-133.9799,3.1301,Actual,0.1047,Calculated,292.1600,Calculated,1,7
BaySys,Amundsen,2008-06-10,06:07:11,300034012811310,71.8859,-133.9957,-0.5492,Actual,0.1521,Calculated,223.9900,Calculated,1,9
BaySys,Amundsen,2008-06-10,08:07:16,300034012811310,71.8781,-134.0214,-9.2202,Actual,0.1730,Calculated,209.8600,Calculated,1,9
BaySys,Amundsen,2008-06-10,10:07:13,300034012811310,71.8731,-134.0498,0.2763,Actual,0.1575,Calculated,235.8800,Calculated,1,9
BaySys,Amundsen,2008-06-10,12:07:53,300034012811310,71.8705,-134.0714,-0.3414,Actual,0.1111,Calculated,338.7300,Calculated,1,14
BaySys,Amundsen,2008-06-10,14:07:20,300034012811310,71.8676,-134.0819,4.3378,Actual,0.0680,Calculated,217.4700,Calculated,1,9
BaySys,Amundsen,2008-06-10,16:08:05,300034012811310,71.8614,-134.0876,-2.8877,Actual,0.0993,Calculated,348.0300,Calculated,1,8
BaySys,Amundsen,2008-06-10,18:07:22,300034012811310,71.8522,-134.0991,-14.2683,Actual,0.1539,Calculated,248.7600,Calculated,1,10
BaySys,Amundsen,2008-06-10,20:07:22,300034012811310,71.8422,-134.1223,5.3745,Actual,0.1913,Calculated,191.6800,Calculated,1,11
BaySys,Amundsen,2008-06-10,22:08:05,300034012811310,71.8345,-134.1539,2.0760,Actual,0.1927,Calculated,253.3000,Calculated,1,11
BaySys,Amundsen,2008-06-11,00:07:59,300034012811310,71.8299,-134.1830,-2.7727,Actual,0.1579,Calculated,191.2500,Calculated,1,10
BaySys,Amundsen,2008-06-11,02:07:30,300034012811310,71.8265,-134.2017,1.1260,Actual,0.1051,Calculated,69.5100,Calculated,1,9
BaySys,Amundsen,2008-06-11,04:07:29,300034012811310,71.8207,-134.2134,1.5030,Actual,0.1062,Calculated,257.5300,Calculated,1,7